[TLELIST]

  • This mailing list is a public mailing list - anyone may join or leave, at any time.
  • This mailing list is announce-only.

International Space Station (ISS) / Hubble Space Telescope (HST) / Chandra X-Ray Observatory Orbital Data via EMAIL

Privacy Policy:

Private list

Archived Messages

 

[TLELIST] Current TLEs

September 14th 2025 PDT

0 HST 1 20580U 90037B 25257.06823216 .00005475 00000-0 19691-3 0 9993 2 20580 28.4676 162.0431 0002335 337.8451 22.2043 15.26304369746279 0 ISS (ZARYA) 1 25544U 98067A 25257.15843506 .00007863 00000-0 14416-3 0 9996 2 25544 51.6331 226.0896 0004303 337.3187 22.7612 15.50283896528963 0 CXO 1 25867U 99040B 25259.35019206 .00000941 00000-0 00000-0 0 9993 2 25867 51.3649 125.8051 8285650 310.4265 0.3581 0.37804868 16283 ...Continue Reading

[TLELIST] Current TLEs

September 13th 2025 PDT

0 HST 1 20580U 90037B 25256.15282209 .00005155 00000-0 18498-3 0 9992 2 20580 28.4676 168.2573 0002277 327.6672 32.3782 15.26294249746133 0 ISS (ZARYA) 1 25544U 98067A 25256.06257952 .00007066 00000-0 13046-3 0 9992 2 25544 51.6331 231.5214 0004290 333.0266 27.0500 15.50263553528797 0 CXO 1 25867U 99040B 25256.70546091 .00000950 00000-0 00000-0 0 9996 2 25867 51.3103 125.9192 8290651 310.3781 0.4168 0.37806980 16272 ...Continue Reading

[TLELIST] Current TLEs

September 13th 2025 PDT

0 HST 1 20580U 90037B 25256.15282209 .00005155 00000-0 18498-3 0 9992 2 20580 28.4676 168.2573 0002277 327.6672 32.3782 15.26294249746133 0 ISS (ZARYA) 1 25544U 98067A 25256.06257952 .00007066 00000-0 13046-3 0 9992 2 25544 51.6331 231.5214 0004290 333.0266 27.0500 15.50263553528797 0 CXO 1 25867U 99040B 25256.70546091 .00000950 00000-0 00000-0 0 9996 2 25867 51.3103 125.9192 8290651 310.3781 0.4168 0.37806980 16272 ...Continue Reading

[TLELIST] Current TLEs

September 12th 2025 PDT

0 HST 1 20580U 90037B 25254.12582267 .00005383 00000-0 19366-3 0 9992 2 20580 28.4680 182.0172 0002181 304.3836 55.6552 15.26272782745821 0 ISS (ZARYA) 1 25544U 98067A 25254.83778358 .00007850 00000-0 14414-3 0 9994 2 25544 51.6331 237.5922 0004235 328.5405 31.5330 15.50244386528606 0 CXO 1 25867U 99040B 25256.70546091 .00000950 00000-0 00000-0 0 9996 2 25867 51.3103 125.9192 8290651 310.3781 0.4168 0.37806980 16272 ...Continue Reading

[TLELIST] Current TLEs

September 11th 2025 PDT

0 HST 1 20580U 90037B 25254.12582267 .00005383 00000-0 19366-3 0 9992 2 20580 28.4680 182.0172 0002181 304.3836 55.6552 15.26272782745821 0 ISS (ZARYA) 1 25544U 98067A 25254.12868393 .00007439 00000-0 13707-3 0 9992 2 25544 51.6330 241.1070 0004195 325.8939 34.1779 15.50232562528493 0 CXO 1 25867U 99040B 25256.70546091 .00000950 00000-0 00000-0 0 9996 2 25867 51.3103 125.9192 8290651 310.3781 0.4168 0.37806980 16272 ...Continue Reading

[TLELIST] Current TLEs

September 11th 2025 PDT

0 HST 1 20580U 90037B 25254.12582267 .00005383 00000-0 19366-3 0 9992 2 20580 28.4680 182.0172 0002181 304.3836 55.6552 15.26272782745821 0 ISS (ZARYA) 1 25544U 98067A 25254.12868393 .00007439 00000-0 13707-3 0 9992 2 25544 51.6330 241.1070 0004195 325.8939 34.1779 15.50232562528493 0 CXO 1 25867U 99040B 25256.70546091 .00000950 00000-0 00000-0 0 9996 2 25867 51.3103 125.9192 8290651 310.3781 0.4168 0.37806980 16272 ...Continue Reading

[TLELIST] Current TLEs

September 10th 2025 PDT

0 HST 1 20580U 90037B 25253.21039419 .00006756 00000-0 24513-3 0 9992 2 20580 28.4681 188.2312 0002125 293.3571 66.6800 15.26264819745681 0 ISS (ZARYA) 1 25544U 98067A 25253.16172137 .00008215 00000-0 15061-3 0 9997 2 25544 51.6328 245.9000 0004223 321.9734 38.0956 15.50218242528340 0 CXO 1 25867U 99040B 25254.06208417 .00001005 00000-0 00000-0 0 9992 2 25867 51.2313 126.0722 8294853 310.3060 0.6801 0.37809756 16262 ...Continue Reading

[TLELIST] Current TLEs

September 9th 2025 PDT

0 HST 1 20580U 90037B 25252.22957136 .00006346 00000-0 22987-3 0 9995 2 20580 28.4680 194.8891 0002102 281.4478 78.5881 15.26252045745537 0 ISS (ZARYA) 1 25544U 98067A 25252.19474949 .00008866 00000-0 16199-3 0 9990 2 25544 51.6325 250.6930 0004281 318.3144 41.7518 15.50201228528195 0 CXO 1 25867U 99040B 25254.06208417 .00001005 00000-0 00000-0 0 9992 2 25867 51.2313 126.0722 8294853 310.3060 0.6801 0.37809756 16262 ...Continue Reading

[TLELIST] Current TLEs

September 9th 2025 PDT

0 HST 1 20580U 90037B 25252.22957136 .00006346 00000-0 22987-3 0 9995 2 20580 28.4680 194.8891 0002102 281.4478 78.5881 15.26252045745537 0 ISS (ZARYA) 1 25544U 98067A 25252.19474949 .00008866 00000-0 16199-3 0 9990 2 25544 51.6325 250.6930 0004281 318.3144 41.7518 15.50201228528195 0 CXO 1 25867U 99040B 25254.06208417 .00001005 00000-0 00000-0 0 9992 2 25867 51.2313 126.0722 8294853 310.3060 0.6801 0.37809756 16262 ...Continue Reading

[TLELIST] Current TLEs

September 8th 2025 PDT

0 HST 1 20580U 90037B 25251.24874103 .00007489 00000-0 27278-3 0 9995 2 20580 28.4678 201.5468 0002072 269.0890 90.9467 15.26240338745389 0 ISS (ZARYA) 1 25544U 98067A 25251.16330099 .00009791 00000-0 17817-3 0 9999 2 25544 51.6324 255.8058 0004236 313.9942 46.0697 15.50181910528033 0 CXO 1 25867U 99040B 25254.06208417 .00001005 00000-0 00000-0 0 9992 2 25867 51.2313 126.0722 8294853 310.3060 0.6801 0.37809756 16262 ...Continue Reading